GEFSNGP_500_meanwind_048.txt.gz
Wind_Speed
13 12 12 11 11 11 13 14 13 14 15 16 18 21 23 23 23 23 21 21 20 20 20 21 21 21 22 22 23 24 26 27 28 29 30 30 30 32 33 33 35 37 39 41
11 9 12 13 13 13 13 13 12 12 14 17 19 21 23 23 22 22 22 22 22 21 21 21 22 22 23 24 25 26 28 29 30 31 32 32 33 34 34 35 37 40 41 42
11 12 13 13 16 15 13 13 11 13 16 18 20 21 21 21 22 22 22 22 22 22 22 22 23 23 24 25 26 28 29 30 31 32 33 35 36 37 38 39 40 42 43 43
14 13 15 16 15 12 12 12 13 14 15 17 19 20 20 21 21 21 22 23 24 24 24 24 24 25 26 27 29 30 31 32 33 34 36 38 40 41 41 41 43 44 45 45
14 15 18 20 21 19 17 16 14 14 16 17 17 18 21 22 23 24 24 25 26 27 27 27 27 28 28 30 31 32 33 34 35 36 38 41 43 44 43 44 45 45 45 46
15 15 18 24 23 18 17 20 17 17 17 17 19 21 23 25 27 29 30 30 29 29 29 30 30 30 31 32 34 35 37 38 38 40 42 45 46 46 46 46 47 47 47 46
16 15 19 26 26 21 18 19 16 19 23 26 27 27 27 27 29 31 32 32 32 32 31 32 33 33 34 35 37 39 40 41 43 45 46 47 48 48 49 49 49 49 47 46
21 22 26 25 26 24 22 22 24 26 28 30 30 30 30 31 31 32 33 33 34 34 34 34 35 36 37 38 40 42 43 44 46 48 49 49 50 49 50 51 50 50 49 47
26 29 29 30 29 26 26 28 30 31 31 32 32 32 32 33 33 33 34 35 35 36 37 38 39 39 40 42 43 45 46 48 50 51 51 52 52 52 53 54 53 52 50 48
29 30 33 33 32 32 32 33 34 33 33 33 33 34 34 35 35 36 36 37 37 38 38 40 41 42 43 44 46 47 49 50 52 53 54 53 53 54 54 54 54 53 51 48
29 34 36 36 36 36 36 36 36 36 35 35 36 36 36 37 37 38 39 39 40 40 41 43 44 45 46 47 49 50 51 52 53 54 54 55 55 55 56 56 56 54 51 49
34 35 37 38 37 36 38 38 38 37 37 37 37 38 38 39 39 40 41 41 42 42 43 45 46 47 49 50 51 52 53 55 56 56 56 57 57 57 57 57 55 53 50 48
35 35 37 37 37 37 39 40 40 39 38 38 39 40 41 41 42 42 43 43 44 45 46 47 48 50 51 52 53 54 55 56 58 58 59 59 59 59 59 57 54 52 49 46
35 36 37 38 38 38 39 41 41 41 41 41 41 42 43 43 44 44 45 46 46 48 49 50 51 53 54 55 56 57 58 59 60 61 62 61 60 59 57 55 53 50 47 44
35 37 39 39 40 40 41 41 42 43 43 43 44 44 45 45 45 46 47 49 50 51 52 54 55 56 57 58 59 61 62 62 62 62 62 60 59 56 54 52 50 47 44 42
35 37 37 38 39 40 41 42 42 43 44 45 45 46 46 47 48 50 51 53 54 55 57 58 60 61 62 63 63 64 64 63 63 62 61 58 56 53 50 48 46 43 42 40
35 36 37 38 39 40 41 42 43 43 45 46 47 48 49 51 52 54 55 57 58 60 61 62 64 64 65 65 65 64 63 62 60 59 57 54 52 49 46 45 43 41 39 37
35 36 37 38 40 41 42 43 44 45 47 48 50 52 53 55 57 58 59 61 62 63 64 65 66 66 66 65 65 64 62 60 58 56 53 51 48 46 44 42 40 38 36 36
35 36 38 39 41 42 44 45 47 48 50 52 53 55 57 59 60 62 63 64 65 65 66 66 65 65 65 63 62 61 60 58 56 53 50 48 46 43 41 39 37 36 35 34
37 39 40 42 44 45 47 49 50 52 53 55 57 58 60 62 63 64 64 65 65 65 65 65 64 63 62 61 60 58 57 55 52 49 47 44 41 39 37 35 34 33 32 31
41 42 44 45 47 48 50 51 53 55 57 58 60 61 62 63 64 64 64 64 63 62 61 60 60 59 58 57 56 54 53 50 47 43 41 39 36 34 33 32 32 30 29 29
44 45 46 48 49 51 52 54 56 57 59 60 61 62 62 62 61 61 60 59 58 56 55 54 54 53 53 52 50 48 46 43 41 39 36 34 32 31 29 29 28 27 27 26
47 48 49 50 52 53 55 56 57 59 59 59 59 59 58 57 56 55 53 52 50 49 49 48 48 48 47 46 44 41 39 36 34 33 31 29 27 26 26 25 25 25 24 23
49 50 51 53 54 55 56 57 57 56 56 55 54 53 52 50 49 47 47 45 43 43 44 43 42 41 41 40 37 35 33 31 29 27 25 24 24 23 23 23 22 21 20 19
51 52 53 54 54 55 55 54 53 52 50 48 47 45 44 43 42 41 40 39 38 38 38 38 38 38 37 36 34 31 28 27 25 21 19 18 19 19 20 20 19 18 17 16
51 52 52 52 51 51 49 48 46 44 43 41 39 38 37 36 36 36 35 35 35 36 36 37 37 36 34 32 29 25 23 21 18 16 15 15 14 14 15 14 14 14 13 12
49 49 49 48 47 45 43 41 40 38 37 35 34 33 32 32 32 32 32 33 34 35 36 35 33 31 30 28 25 22 20 17 14 12 11 10 10 10 10 10 10 10 10 10

GEFSNGP_500_meanwind_054.txt.gz
Wind_Speed
15 15 14 14 13 12 13 14 15 14 15 15 15 16 14 13 14 14 13 11 11 11 12 13 14 15 16 17 19 20 22 24 25 26 27 27 28 28 28 29 30 31 31 32
14 15 17 15 15 15 16 16 17 17 18 16 16 16 15 15 14 15 15 13 12 12 13 15 16 17 19 20 21 23 24 26 27 28 29 30 30 30 31 31 32 33 34 34
17 16 17 18 18 19 20 21 22 22 21 19 16 17 17 17 17 16 16 15 14 14 16 17 19 20 21 23 24 26 27 28 30 31 31 32 32 32 33 34 35 35 36 37
20 18 18 17 20 22 22 22 23 26 26 22 20 18 17 17 17 17 17 18 18 19 20 21 22 24 25 26 27 28 30 31 32 33 33 34 34 35 35 36 37 38 39 39
21 20 19 19 21 22 22 22 22 21 22 21 20 19 17 16 18 18 21 23 24 25 25 26 27 28 28 29 30 31 33 34 35 35 36 36 37 37 38 39 40 41 41 42
24 24 22 21 21 21 22 21 21 20 21 22 22 20 17 17 20 23 25 26 27 28 29 30 31 31 31 32 32 33 35 36 37 38 38 39 39 40 41 42 43 43 44 44
26 26 25 22 21 21 21 19 19 20 20 20 20 21 20 20 22 25 27 28 30 31 32 32 33 34 34 35 34 35 37 38 39 40 41 41 42 43 44 45 46 46 46 46
26 26 25 24 24 21 17 18 19 18 18 19 20 20 21 23 25 27 29 31 32 33 34 35 35 36 37 37 38 39 39 40 41 43 44 44 46 47 47 48 48 48 48 48
26 25 24 24 24 21 19 20 19 19 20 20 21 21 23 25 27 29 30 32 33 34 36 37 38 38 39 40 41 42 42 43 44 46 47 48 49 50 50 50 50 50 51 51
26 26 26 25 25 23 20 20 22 23 23 23 23 25 26 28 29 30 32 33 34 36 37 38 39 40 41 42 43 44 45 46 47 49 49 50 51 52 53 53 53 53 54 54
29 28 28 28 25 25 24 23 24 25 26 27 28 28 29 30 31 32 33 34 36 37 38 39 40 41 42 43 44 46 47 49 50 51 52 53 54 55 55 56 57 57 57 57
30 29 29 29 27 26 25 25 25 27 29 31 32 32 33 33 34 34 35 36 37 38 39 40 41 42 43 45 46 48 49 51 52 54 55 56 57 58 59 59 59 60 59 59
30 30 29 28 28 29 29 29 30 32 33 34 34 34 35 36 36 37 38 39 40 40 41 43 44 45 46 48 49 51 52 54 55 57 58 59 60 61 61 61 61 61 60 59
27 28 29 29 30 32 32 32 33 33 33 34 35 36 37 38 38 39 40 41 42 44 45 46 47 49 50 51 53 55 56 58 59 61 62 63 63 64 64 63 62 60 59 57
25 27 29 30 31 33 33 33 34 34 35 36 37 38 39 40 42 43 44 45 46 48 49 50 52 53 54 56 57 59 60 61 62 63 64 65 65 65 64 64 62 60 58 55
25 27 29 29 30 31 32 33 34 36 37 38 40 41 42 44 45 46 48 49 50 52 53 55 56 58 59 60 61 62 63 64 64 64 65 65 65 64 63 62 60 58 55 53
27 27 28 28 29 30 32 33 35 37 39 40 42 44 45 47 48 50 52 53 55 56 57 59 60 61 62 63 63 64 64 64 64 64 64 64 64 63 61 59 57 54 51 49
27 27 28 29 30 31 33 35 37 39 42 43 45 47 48 50 51 53 55 56 57 58 60 61 62 63 63 63 63 63 63 63 62 61 61 60 59 58 56 54 51 48 45 42
28 29 30 31 32 34 37 39 41 43 45 47 48 50 51 53 54 56 57 58 59 60 61 61 61 61 61 61 60 59 58 57 57 56 55 54 53 51 49 46 42 39 37 35
31 33 35 36 38 39 41 43 45 46 48 49 50 52 53 55 56 57 58 59 60 59 59 58 57 56 55 54 54 53 52 51 51 50 49 48 46 44 41 38 34 30 29 30
35 36 38 40 42 43 45 46 48 49 50 51 53 54 55 56 57 57 57 56 55 54 53 52 50 49 48 48 48 47 47 47 46 46 44 41 39 36 32 28 25 24 23 23
39 40 41 43 44 46 47 49 50 51 52 53 55 55 56 55 55 53 52 50 48 48 47 45 44 44 44 44 44 44 44 44 44 42 40 36 33 29 25 23 21 19 18 19
41 43 44 46 47 48 49 50 52 53 53 54 54 54 53 51 49 47 45 44 43 43 41 40 41 41 41 42 43 43 42 41 40 38 34 30 27 24 21 19 17 15 15 16
44 45 47 48 49 50 51 52 52 53 52 52 51 49 47 45 43 41 40 39 39 37 37 38 39 40 40 41 41 40 39 37 36 33 28 25 22 18 15 13 12 11 11 11
45 47 48 49 50 50 50 50 50 49 48 47 45 42 40 39 37 36 36 35 35 35 36 37 39 39 40 40 39 37 36 34 31 27 23 19 15 12 9 7 7 7 7 7
46 47 47 48 48 48 48 47 46 44 42 40 38 36 35 34 33 32 31 32 33 34 36 37 38 38 38 37 36 34 31 28 25 20 16 12 9 6 3 1 2 4 3 3
45 46 46 46 46 45 44 42 40 38 36 34 33 32 31 30 29 29 29 31 32 34 35 35 35 36 35 33 31 28 25 22 18 14 11 8 6 3 2 3 3 3 3 2

GEFSNGP_500_meanwind_060.txt.gz
Wind_Speed
14 15 16 16 16 18 19 18 18 16 16 15 15 15 14 14 14 14 15 14 14 14 14 15 16 16 17 17 18 19 20 21 22 23 23 24 25 27 28 29 29 31 32 32
16 17 18 17 17 18 18 18 19 19 19 18 17 17 17 17 17 17 17 16 16 15 15 16 16 16 17 18 20 20 21 23 24 25 26 27 28 29 30 31 32 33 34 35
18 19 20 19 18 19 19 19 19 20 20 19 19 19 20 20 19 19 19 19 19 19 18 18 18 18 20 21 23 24 25 26 27 28 29 30 31 32 33 34 35 36 36 37
20 21 22 20 19 20 20 20 20 21 21 21 21 21 21 21 21 23 21 20 20 20 20 20 21 22 23 24 25 26 28 28 29 31 32 34 34 35 36 37 38 38 39 40
21 22 22 20 20 21 21 21 21 21 21 20 21 22 21 21 22 24 23 23 22 22 22 22 23 24 26 27 29 30 31 31 32 34 35 37 38 39 40 41 41 42 43 44
22 23 22 20 20 20 21 21 21 21 20 20 20 20 19 20 21 21 23 24 23 24 24 25 26 27 28 30 31 32 34 35 35 37 38 40 41 43 44 44 45 46 47 48
21 21 20 20 20 20 21 20 20 21 20 20 20 18 18 18 18 19 20 22 23 25 25 27 28 30 31 32 34 35 36 37 38 40 41 43 45 46 47 49 50 50 51 52
21 21 21 20 20 20 21 21 21 21 20 20 20 18 17 18 18 18 19 22 24 26 27 29 30 32 33 35 36 38 39 41 42 43 45 46 48 49 50 52 53 53 54 54
21 21 21 20 20 20 20 21 21 21 21 21 20 18 17 18 20 20 22 24 25 27 29 30 32 33 35 37 38 40 41 43 44 45 47 48 50 51 53 54 55 56 57 58
22 22 21 21 21 21 22 23 22 22 20 19 20 20 21 22 22 23 25 26 28 29 31 32 34 36 37 39 40 42 43 45 46 47 49 51 53 54 56 57 59 60 61 62
24 23 23 22 23 23 23 23 23 22 21 21 22 22 23 23 24 25 27 29 30 32 33 34 36 37 39 41 42 44 46 47 49 50 52 54 55 57 59 61 63 64 65 66
25 25 24 24 24 24 24 24 24 22 22 22 23 23 23 24 25 27 29 30 32 33 35 36 38 40 42 44 45 47 48 50 52 54 55 57 59 61 62 64 66 67 69 69
25 25 25 25 25 25 25 24 23 23 23 24 25 25 26 27 28 29 31 32 34 35 37 39 41 43 45 46 48 50 52 54 55 57 59 61 62 63 64 65 67 68 70 71
25 25 25 25 25 26 26 25 24 24 25 26 26 27 27 29 30 31 33 35 37 38 40 42 44 46 48 50 52 54 55 57 59 60 62 63 64 66 67 67 67 67 69 70
25 25 26 26 26 27 27 27 26 27 28 28 28 28 28 30 32 34 36 38 40 42 44 46 48 50 52 54 55 57 58 60 61 62 63 64 65 66 66 67 67 67 67 67
25 25 27 28 28 27 28 28 28 28 28 27 28 29 31 33 35 37 40 42 44 46 48 50 51 53 55 57 58 59 60 61 62 62 63 63 63 64 64 64 63 62 62 61
25 26 27 27 26 26 26 25 25 26 27 29 30 33 35 37 39 42 44 46 48 49 51 53 54 56 58 59 59 60 60 60 60 60 60 60 60 59 59 58 58 57 55 54
26 26 24 23 22 22 23 24 25 28 31 33 35 37 39 42 44 46 47 49 51 52 54 55 56 57 58 58 58 58 57 57 57 57 56 56 56 55 55 54 53 51 49 47
25 24 23 22 23 24 25 27 29 32 34 36 39 41 43 45 47 49 50 52 53 54 55 56 56 56 55 55 55 54 54 54 54 54 54 53 52 52 51 50 47 45 43 40
25 24 23 24 25 27 29 32 34 36 38 40 42 44 46 48 49 51 52 54 55 55 55 54 54 53 52 51 51 51 51 51 51 50 50 49 48 47 47 45 43 40 37 33
26 27 28 29 31 33 35 36 37 39 40 43 45 46 48 49 51 52 52 53 53 53 52 51 50 49 48 48 48 48 48 48 47 47 47 46 45 44 41 39 36 33 29 26
30 31 32 34 35 36 38 39 40 42 44 46 47 49 50 50 51 51 51 51 50 49 47 46 46 45 44 45 45 45 45 45 45 45 44 43 40 37 34 31 29 25 21 18
32 33 35 37 38 40 41 42 44 45 47 48 49 50 50 50 49 49 47 46 45 44 43 42 42 41 41 42 42 43 43 43 42 40 38 35 32 29 26 23 20 16 13 11
35 37 38 40 42 43 44 45 46 47 48 49 49 49 48 47 46 44 43 41 40 39 38 38 37 37 39 40 40 41 40 38 36 33 30 27 25 21 18 15 12 10 9 8
39 41 42 43 44 44 45 46 47 47 47 46 46 45 44 42 41 39 38 36 35 35 34 34 35 36 37 38 38 37 34 32 29 26 24 21 18 15 13 11 10 9 8 8
41 42 43 44 44 45 45 45 45 44 44 43 42 40 39 37 36 35 33 32 32 31 31 32 34 35 36 35 33 31 28 25 23 21 18 15 13 12 11 10 10 10 9 8
41 42 42 43 43 43 43 43 42 41 40 38 37 36 34 33 31 30 29 28 28 29 30 31 32 33 33 30 28 25 22 20 18 17 14 13 11 10 10 10 10 10 9 9

GEFSNGP_500_meanwind_066.txt.gz
Wind_Speed
16 17 16 15 14 13 12 12 12 13 14 15 14 14 15 15 15 15 14 14 14 14 15 16 16 17 18 19 20 20 21 22 24 25 26 27 28 29 29 30 31 32 32 33
17 16 16 16 16 15 14 13 13 14 15 14 15 16 16 18 19 19 18 18 18 19 19 19 20 20 20 21 22 22 23 24 25 26 27 28 29 30 31 32 33 34 34 34
17 18 18 16 16 16 16 16 16 16 16 16 16 16 18 19 20 21 22 23 23 23 23 24 23 23 23 24 24 25 25 26 27 27 29 30 31 32 34 35 36 36 37 38
18 20 20 18 18 18 19 19 18 18 17 17 17 17 19 20 21 22 24 25 26 27 27 27 27 27 27 28 28 28 28 29 30 30 31 32 34 35 36 38 39 39 40 41
20 19 18 20 18 18 19 19 19 19 19 18 18 19 19 20 21 23 25 27 29 29 30 31 32 32 32 32 32 32 32 32 33 34 35 37 38 39 41 41 42 43 43 45
22 21 19 21 19 19 19 19 19 20 19 19 19 20 20 21 23 23 25 27 30 32 33 33 34 35 36 36 35 35 35 35 36 37 38 40 41 43 44 45 46 47 48 48
23 22 22 22 20 19 19 19 19 20 20 20 20 21 22 22 23 24 26 27 29 31 32 33 34 35 35 36 36 36 37 38 39 40 42 43 44 45 46 48 49 50 51 52
24 23 24 22 20 19 19 19 20 21 21 21 22 22 22 23 24 25 26 27 27 28 30 31 32 32 33 34 35 36 37 39 41 42 44 45 46 48 49 50 51 53 54 55
24 24 24 22 21 20 20 20 21 22 22 22 23 24 24 24 25 26 27 27 27 27 29 29 30 31 32 33 35 37 38 40 42 44 45 46 48 49 51 52 54 55 57 58
24 24 23 22 22 22 22 22 22 23 23 24 24 25 26 26 27 28 27 28 29 29 29 30 30 32 33 35 36 38 39 41 43 44 46 48 49 51 53 55 57 59 60 62
21 22 22 22 22 23 23 23 24 24 25 25 26 26 27 28 28 28 29 29 29 29 30 31 32 34 35 36 38 39 41 43 44 46 48 50 52 55 57 59 61 62 64 65
21 21 22 22 23 23 24 24 25 25 26 26 26 27 28 29 29 29 29 29 30 30 32 33 34 35 36 38 40 41 43 45 47 49 52 54 56 58 60 62 64 65 67 68
21 22 23 23 24 24 25 25 25 26 26 26 26 27 29 29 28 28 28 29 31 32 33 34 36 37 39 41 43 45 47 49 51 53 56 58 60 62 64 65 66 68 69 70
21 22 23 23 24 24 25 25 26 26 27 28 28 29 30 30 30 30 30 31 33 34 35 37 38 40 42 44 47 49 51 53 55 58 60 62 64 66 67 67 68 68 68 68
20 21 22 23 23 24 25 25 27 27 28 29 30 31 31 32 32 32 33 34 35 36 38 40 42 44 46 48 51 53 55 58 60 61 63 65 66 66 66 66 66 65 64 64
20 21 21 22 23 24 25 26 27 28 29 30 31 32 32 33 33 34 34 36 37 39 41 44 46 48 50 52 54 57 59 60 61 63 63 64 63 63 62 62 62 61 59 58
20 21 22 23 24 25 26 27 28 29 30 31 31 32 33 34 34 35 37 39 41 43 44 46 48 51 53 55 57 58 60 61 61 60 59 59 58 58 58 57 56 54 53 52
21 22 23 24 25 26 27 28 28 29 29 30 32 33 34 35 36 38 40 42 44 46 47 49 52 54 55 57 57 58 58 57 56 55 55 54 54 53 52 51 49 48 46 45
23 23 24 25 26 26 27 27 28 28 29 31 32 34 36 38 39 41 42 44 46 48 50 52 53 54 55 55 55 54 53 52 51 50 50 49 48 47 46 44 42 41 39 36
25 25 25 25 26 26 27 28 30 31 32 33 34 36 38 40 41 42 44 46 48 50 51 52 52 52 52 51 50 48 47 46 45 45 45 44 43 41 40 38 36 33 31 29
25 25 25 26 27 29 30 31 32 34 35 36 37 39 40 42 43 45 47 49 49 49 50 50 49 48 47 45 43 42 41 40 41 41 40 39 38 36 35 32 29 26 24 22
25 26 26 28 29 31 32 33 34 36 37 38 40 41 43 44 46 47 47 48 48 47 47 46 44 43 41 40 38 37 38 38 38 37 35 33 31 30 27 24 21 19 17 16
28 29 30 31 32 33 34 35 36 37 39 40 42 43 45 46 46 46 46 45 44 43 42 40 39 37 36 35 35 35 35 35 33 31 29 28 26 24 21 18 16 14 14 13
29 30 31 33 33 35 36 38 39 40 41 42 43 44 44 44 44 43 42 41 40 38 37 35 34 33 32 32 32 32 32 30 28 26 25 23 21 18 16 14 13 12 12 12
31 32 33 34 35 37 38 39 40 41 41 42 42 42 42 41 40 39 38 37 35 33 32 31 30 30 29 29 29 29 28 26 24 22 20 18 16 14 14 12 11 11 11 11
32 33 34 36 37 38 38 39 40 40 40 40 39 39 38 37 36 35 34 31 30 29 28 28 27 27 27 27 27 26 24 22 20 18 16 14 13 12 11 10 10 10 10 10
34 35 36 37 37 38 38 38 37 37 37 36 35 34 33 32 31 29 27 26 25 25 25 25 25 25 24 24 23 22 20 18 16 14 13 12 11 10 9 9 9 9 10 10

GEFSNGP_500_meanwind_072.txt.gz
Wind_Speed
32 29 26 19 14 15 17 16 17 19 22 23 21 17 15 15 16 16 16 16 16 16 16 15 15 15 16 17 17 18 20 21 21 22 22 22 24 25 26 26 27 28 28 29
32 28 24 19 15 16 18 18 18 21 26 25 23 21 18 18 18 17 18 19 19 19 20 20 20 20 21 21 22 22 23 23 24 24 25 26 27 28 29 28 29 30 30 32
33 28 26 23 20 21 20 20 21 23 27 25 24 21 21 21 21 20 19 19 20 21 23 23 24 25 25 25 26 27 28 28 28 28 29 30 30 31 31 31 31 32 34 34
33 30 31 26 25 25 23 23 25 27 27 26 25 24 24 23 22 21 21 22 22 22 23 24 25 27 28 29 30 32 32 32 32 32 33 34 34 35 34 34 34 35 35 36
33 33 31 28 28 27 25 24 26 28 26 25 25 24 23 23 23 22 22 23 23 23 24 25 26 28 30 32 34 35 35 36 37 36 37 37 38 38 39 39 38 38 39 40
31 32 29 32 32 28 27 24 26 27 25 24 24 23 22 22 22 23 23 23 24 25 26 26 27 29 30 33 34 35 37 38 38 38 38 39 39 39 40 40 40 40 42 43
28 29 30 32 30 27 26 25 23 22 22 23 23 22 21 22 23 24 24 25 25 26 27 27 28 30 31 33 35 36 37 38 38 38 38 37 36 38 39 40 41 42 43 44
30 32 35 31 27 26 24 24 23 24 24 23 23 23 23 23 24 25 25 26 27 27 28 28 29 30 32 34 35 36 36 36 36 36 36 36 37 37 38 40 41 43 44 46
34 35 35 32 31 27 23 24 25 26 25 24 25 24 24 25 25 26 26 27 28 29 30 30 31 32 32 33 32 33 33 33 33 34 35 36 36 37 39 41 43 45 47 49
28 31 31 32 28 23 24 24 23 25 25 25 25 25 25 26 27 28 28 29 30 30 31 32 33 32 32 32 32 32 33 33 34 35 36 37 39 41 43 45 47 49 51 53
23 24 23 23 24 23 23 23 24 25 25 24 25 26 27 28 28 29 29 29 30 31 32 32 33 33 33 33 33 33 34 35 36 37 38 40 42 44 46 48 50 53 55 58
18 18 19 18 18 19 20 21 23 23 24 25 25 26 27 27 28 29 30 30 31 31 32 32 32 32 33 33 34 35 36 37 39 41 43 44 46 48 50 53 55 57 59 62
16 18 19 19 18 18 18 19 21 22 23 24 25 26 27 27 28 29 29 30 31 31 31 32 32 32 33 34 35 37 39 40 42 44 46 48 51 53 55 57 60 62 64 65
16 18 19 18 18 19 20 20 21 23 24 25 25 26 27 28 29 29 30 31 32 33 33 33 33 33 34 35 37 38 40 43 45 47 49 52 54 57 59 61 62 64 65 65
15 16 17 18 18 19 20 21 22 23 24 25 26 27 28 29 30 30 31 32 32 33 34 35 35 35 35 37 39 41 44 46 48 50 53 55 57 58 60 61 61 61 61 61
15 16 17 18 19 19 20 22 23 24 25 26 27 28 29 30 30 31 32 32 33 34 35 35 36 38 39 41 43 45 48 50 51 53 54 56 57 58 58 58 58 57 56 55
17 17 18 19 20 21 22 23 24 25 26 27 28 29 30 30 31 32 33 34 35 36 36 37 39 41 42 44 46 48 50 52 53 54 55 55 56 55 55 54 52 50 49 48
18 19 19 20 21 21 23 24 25 25 27 28 29 30 31 31 32 33 34 35 35 36 37 39 41 43 44 46 48 50 51 52 52 52 53 52 52 51 49 47 45 44 43 41
19 20 21 21 22 23 24 25 26 28 28 28 29 30 32 33 34 34 36 37 38 39 41 42 44 46 47 49 49 50 50 50 50 49 48 48 46 45 43 41 40 39 37 36
21 21 22 23 24 25 26 27 28 28 29 30 31 32 33 34 35 37 38 39 41 42 43 44 46 47 48 49 49 49 49 47 46 45 44 43 42 40 39 37 36 34 33 31
22 23 24 24 25 25 27 28 28 29 29 30 32 33 34 35 36 38 39 40 42 43 45 46 46 47 47 47 47 46 44 43 42 41 40 39 38 36 34 33 31 29 28 26
23 24 25 26 26 27 28 28 28 30 31 32 34 36 37 38 39 40 41 41 42 43 44 45 45 44 44 43 42 41 40 39 38 37 37 36 34 32 30 29 27 25 24 23
24 24 25 27 28 29 30 30 31 32 33 35 36 37 39 40 41 42 41 42 42 43 43 43 42 41 40 39 39 38 37 36 35 34 33 32 30 28 26 25 23 22 21 20
24 25 27 28 30 31 31 32 33 35 36 37 38 39 40 41 41 40 40 40 40 40 39 39 39 38 37 37 36 35 34 33 32 30 29 28 26 24 23 21 20 19 18 17
27 28 29 30 31 32 34 35 36 36 37 38 39 38 39 39 39 38 37 37 37 37 36 36 36 35 34 34 33 32 30 29 28 27 25 24 22 21 20 18 17 17 17 17
29 30 31 32 33 34 35 36 37 37 38 38 38 37 37 36 36 34 34 34 34 34 34 33 32 32 31 30 29 28 27 26 25 23 22 21 20 19 17 16 16 16 16 16
31 32 33 33 34 35 35 36 37 37 36 36 35 34 34 33 32 32 32 32 31 31 31 30 29 28 27 27 26 25 24 23 22 21 20 20 18 17 17 17 17 17 16 17

GEFSNGP_500_meanwind_078.txt.gz
Wind_Speed
44 41 39 36 33 33 31 29 28 26 24 21 18 17 16 14 11 9 8 7 7 7 7 8 8 8 9 11 12 12 13 14 16 17 18 19 21 23 24 26 26 27 28 29
48 46 44 41 37 36 34 33 31 29 26 22 20 18 16 15 12 11 9 8 8 9 9 10 10 10 12 14 15 15 15 16 18 18 18 19 22 23 25 27 29 29 30 31
51 49 48 45 40 39 37 34 34 31 27 24 21 19 17 16 13 12 11 10 10 11 11 11 12 13 14 15 16 16 18 19 20 21 21 22 23 25 27 28 30 31 31 33
51 50 52 47 44 41 39 36 34 32 30 27 24 21 18 17 15 14 12 12 12 12 12 13 14 15 16 17 19 20 21 22 23 23 23 25 27 28 30 31 32 34 35 36
46 48 48 46 43 43 40 38 36 34 32 30 27 24 20 18 17 15 14 13 13 13 14 15 16 17 18 19 21 22 22 23 24 25 27 27 29 30 31 32 33 34 35 35
41 44 45 42 40 41 40 40 37 36 35 32 28 25 21 19 17 16 15 15 15 16 16 17 18 19 20 21 23 24 25 26 27 28 29 30 31 32 33 33 33 35 35 35
35 38 39 37 36 37 38 36 35 34 33 30 26 23 21 19 16 15 15 16 17 17 18 19 20 21 22 23 24 26 27 28 29 30 31 32 32 32 33 33 34 34 35 35
29 32 32 32 32 33 33 32 32 29 27 27 24 21 19 17 16 15 16 17 18 19 20 21 22 23 24 25 26 28 29 30 31 32 32 32 32 32 33 34 34 35 36 37
22 25 26 27 28 29 29 28 29 26 24 25 22 19 18 17 17 17 17 18 19 20 21 23 24 25 26 27 28 30 31 31 32 32 33 33 33 34 35 36 37 37 38 39
15 17 20 22 23 24 25 25 26 25 23 20 20 18 16 16 17 17 18 19 21 22 23 24 25 26 27 28 29 30 31 32 33 33 34 34 35 36 37 38 39 40 41 43
11 11 13 16 18 16 17 19 21 21 19 17 17 16 14 15 16 17 19 20 22 23 24 25 26 27 28 29 30 31 32 33 33 34 35 36 37 38 39 40 42 44 45 47
6 7 9 10 11 14 14 13 14 14 14 14 14 14 14 15 17 18 19 21 22 23 24 25 27 28 29 30 31 32 33 33 34 35 36 38 39 40 42 43 45 47 48 50
4 5 6 7 8 8 9 9 9 8 9 10 10 11 13 15 17 19 20 21 23 24 25 26 27 29 30 31 32 33 34 35 36 37 38 39 41 43 45 46 48 49 51 53
2 4 4 4 5 6 6 6 6 6 7 8 11 13 15 17 18 20 21 23 24 25 26 27 28 29 31 32 33 34 35 36 37 38 39 41 43 45 46 48 50 51 53 54
2 2 3 3 2 3 4 5 6 7 9 11 13 14 16 18 20 21 23 24 25 26 28 28 29 30 31 32 33 35 36 38 39 40 42 44 46 48 49 51 52 53 53 54
4 4 3 3 3 4 4 6 8 9 11 13 14 16 17 19 21 22 24 25 26 27 28 29 30 31 32 33 34 36 38 39 41 43 45 47 49 50 51 51 52 52 52 51
5 5 5 5 6 6 7 9 10 11 13 14 16 17 19 20 22 24 25 26 27 27 28 30 31 32 34 35 37 39 41 43 45 46 48 49 50 50 50 50 49 49 49 47
7 7 7 7 8 9 10 11 12 13 15 16 18 20 21 22 23 25 25 26 27 28 30 32 34 35 37 38 40 42 44 46 47 48 48 48 48 48 47 46 46 45 44 42
9 9 9 9 10 11 12 13 14 16 17 18 19 20 21 23 24 25 27 28 29 31 32 34 36 38 40 41 43 44 45 46 47 46 46 46 45 44 43 43 42 41 39 37
10 10 11 11 12 13 14 15 16 17 18 19 20 22 23 25 26 28 29 31 32 34 36 38 39 41 42 43 44 44 45 45 44 44 44 43 42 41 40 39 37 35 34 32
12 12 13 13 14 15 16 16 18 19 20 21 23 24 26 28 30 31 33 34 36 37 39 40 41 42 42 43 43 43 42 42 42 41 40 39 38 36 35 33 32 30 29 27
13 13 14 15 16 17 18 19 20 21 22 24 26 27 29 31 32 33 35 36 37 38 39 40 40 41 41 40 40 39 39 39 37 36 35 34 32 31 30 29 27 26 24 23
14 15 16 17 18 19 21 22 23 24 26 27 29 30 31 33 34 35 36 37 37 38 38 38 38 38 38 38 37 36 36 34 33 32 31 29 28 28 27 26 24 23 22 21
16 17 19 20 21 22 24 25 26 27 28 30 31 32 33 34 35 35 35 36 36 36 35 35 35 35 35 35 34 33 32 31 30 29 29 28 27 26 25 24 22 21 21 20
19 20 21 22 23 24 26 27 28 29 30 31 32 33 33 34 33 33 33 34 33 33 33 32 32 32 31 31 31 30 30 29 28 28 27 26 24 23 23 22 22 21 20 20
21 22 23 24 25 27 28 29 29 30 31 32 32 32 31 31 31 31 30 30 30 30 30 30 30 29 30 29 29 29 28 27 26 25 24 23 22 22 22 21 20 20 20 20
23 24 25 26 27 28 29 30 30 31 31 30 30 29 29 29 28 28 28 28 28 28 27 27 27 28 28 27 27 26 24 23 23 22 21 21 21 21 20 20 20 20 20 20

GEFSNGP_500_meanwind_084.txt.gz
Wind_Speed
38 37 36 35 34 34 34 34 34 30 27 23 21 19 16 15 15 14 13 12 12 12 12 11 10 10 11 11 12 12 13 14 16 18 19 19 20 20 20 21 23 24 25 26
43 42 43 41 38 37 37 36 35 33 29 26 23 20 18 17 17 17 16 15 14 14 13 14 13 12 13 13 14 14 14 14 15 16 17 19 21 21 22 23 24 25 26 29
45 44 44 44 39 39 39 38 37 35 32 29 27 24 22 22 19 19 18 17 16 16 16 15 14 14 14 15 14 15 15 15 16 17 16 17 19 21 23 25 26 27 29 30
43 42 44 42 40 39 38 37 37 35 33 31 29 27 26 24 23 22 21 19 18 17 17 17 16 16 16 16 14 14 15 16 16 17 17 18 19 21 23 25 27 29 30 31
38 40 41 39 38 37 38 37 35 35 35 34 32 30 28 27 26 25 24 23 21 19 18 18 18 18 17 18 17 17 17 18 19 20 20 21 22 24 25 27 29 30 32 33
35 37 38 35 34 35 36 35 33 34 34 34 33 31 28 28 28 27 26 25 24 23 21 20 20 19 19 19 19 19 20 21 22 23 24 24 26 27 29 30 32 33 33 34
31 32 33 32 31 31 33 31 30 32 33 33 33 31 30 30 30 29 29 27 25 25 24 23 22 22 21 21 21 22 23 23 24 25 26 28 29 30 31 32 33 34 35 35
28 29 28 27 28 28 28 28 27 28 29 31 32 31 31 31 31 30 29 28 26 26 25 24 23 23 23 23 23 24 25 25 27 27 28 29 30 31 32 33 34 35 36 36
24 25 25 24 24 23 23 23 24 24 26 27 29 30 30 29 29 28 28 28 26 25 25 24 24 23 24 24 24 25 27 27 28 29 30 31 32 33 34 34 35 36 37 38
20 20 20 20 21 20 20 20 20 21 22 24 25 25 26 26 26 26 27 26 25 26 25 24 24 24 24 25 26 27 28 29 30 31 32 33 34 35 35 36 37 39 40 41
16 15 14 15 16 16 16 16 16 17 19 20 22 24 25 24 24 24 24 26 25 25 24 24 24 24 25 26 27 28 29 30 32 33 34 35 36 37 38 39 40 41 42 44
11 11 11 11 12 12 13 13 14 15 17 18 19 21 22 23 23 24 23 22 21 23 23 23 23 25 26 27 28 29 31 32 33 34 35 36 38 39 40 42 43 44 45 47
10 10 9 8 8 10 11 12 13 14 16 17 18 19 21 22 22 21 19 19 20 22 22 23 24 25 26 27 29 30 32 33 34 36 37 38 40 41 43 45 47 48 50 52
9 8 8 7 8 9 11 12 13 14 15 16 16 16 16 17 18 18 18 18 19 20 21 22 24 25 27 28 30 32 33 35 36 38 40 41 43 45 47 49 51 53 54 56
5 5 5 7 10 11 12 12 13 13 13 13 13 12 13 14 15 15 16 17 18 20 21 23 25 26 28 30 32 34 35 37 39 41 43 45 47 49 51 53 54 56 57 57
5 4 5 6 7 8 8 9 9 9 9 9 9 9 10 11 12 14 15 17 18 20 22 24 26 28 30 32 34 36 38 40 42 44 47 49 51 53 54 55 56 56 56 56
7 6 6 7 7 7 7 7 7 7 7 7 8 9 10 12 13 15 17 18 20 22 24 26 28 30 32 34 37 39 41 44 46 48 50 52 53 54 55 55 55 54 54 53
9 8 7 7 7 7 7 6 6 7 7 8 9 11 12 14 15 17 18 20 22 24 26 28 31 33 36 38 40 43 45 47 49 50 51 52 52 52 52 52 51 51 50 49
10 9 9 8 7 7 7 7 8 8 9 10 12 13 14 15 17 19 21 23 25 27 29 31 34 37 39 41 43 45 47 48 49 49 49 49 49 49 48 47 46 44 43 42
11 10 9 9 8 8 8 9 9 10 11 12 14 15 16 18 20 22 24 26 28 30 33 35 38 40 41 43 45 46 46 46 46 46 46 45 45 45 44 42 41 40 39 37
12 11 10 9 10 10 10 11 11 12 13 14 16 18 19 21 23 25 27 29 31 33 36 38 39 41 42 42 42 43 43 43 43 43 43 42 42 40 39 38 37 36 35 34
11 11 11 11 11 12 12 13 14 15 16 18 19 21 23 24 26 28 30 32 33 35 36 37 38 39 39 40 40 41 41 41 41 40 40 39 38 37 36 35 34 33 32 31
12 12 12 13 13 14 15 15 17 18 20 21 23 24 26 27 29 30 32 33 34 35 36 37 37 37 37 38 38 38 38 38 38 37 36 36 34 34 33 32 30 30 29 29
13 13 13 14 15 16 17 18 20 21 22 24 25 26 28 29 31 32 33 33 34 34 35 35 35 35 35 36 36 36 35 35 34 34 33 32 31 31 30 29 28 28 28 27
14 14 15 16 17 18 20 21 22 24 25 26 28 29 30 31 31 32 32 33 33 33 33 33 33 33 33 33 33 33 32 32 31 30 30 29 29 28 27 27 26 26 26 26
16 17 18 19 20 21 22 23 24 25 26 28 29 29 30 31 31 31 31 31 31 31 31 31 31 31 31 31 30 29 29 28 28 28 27 27 26 26 25 25 25 25 25 24
18 19 20 21 22 23 24 25 26 27 27 28 29 29 30 30 30 29 29 29 29 29 28 28 28 28 28 28 27 26 26 26 26 26 25 24 24 24 24 24 24 24 24 24

GEFSNGP_500_meanwind_090.txt.gz
Wind_Speed
28 29 29 28 27 27 27 26 26 25 24 22 23 22 20 19 18 16 15 14 12 11 9 9 9 9 9 9 10 11 11 12 13 14 15 17 19 19 20 20 21 21 22 22
31 31 32 31 30 29 29 29 30 29 28 27 27 26 24 23 21 19 18 16 15 14 13 12 11 11 11 11 12 13 14 14 15 15 16 17 18 19 20 20 21 22 23 24
32 33 34 33 30 30 30 30 31 31 29 30 30 30 28 26 25 23 21 19 18 17 16 15 14 13 14 14 15 16 16 16 16 17 16 15 16 18 19 21 22 23 24 26
32 33 35 31 31 30 31 31 32 32 31 31 31 31 30 30 29 27 25 23 22 20 19 18 17 17 17 17 17 17 17 17 18 18 18 18 18 19 19 21 23 25 26 28
31 31 32 30 30 30 31 31 31 32 31 31 31 31 31 31 31 30 28 27 25 24 22 21 20 20 19 18 19 19 18 19 19 19 20 21 21 21 21 23 25 27 29 30
29 30 30 30 28 29 30 31 30 31 31 31 31 33 33 33 33 32 31 30 29 27 26 24 23 22 22 21 20 20 20 21 22 22 22 22 23 24 25 27 28 30 31 33
27 29 29 29 27 27 29 30 29 29 30 31 32 33 33 33 34 34 33 32 31 30 29 27 26 26 26 25 24 23 23 23 23 24 24 25 26 27 29 30 31 33 34 36
26 27 28 27 26 27 27 27 27 28 29 30 31 32 33 34 34 34 33 33 32 31 30 29 29 28 28 27 27 27 26 26 26 27 28 28 29 30 31 32 33 35 36 37
26 26 26 26 25 25 26 26 26 27 28 29 29 31 32 33 34 34 34 33 32 31 31 31 31 31 30 30 29 29 28 29 29 29 29 30 31 32 32 34 35 36 38 39
24 24 25 25 25 24 24 24 24 26 27 28 29 30 31 32 32 33 33 33 32 31 31 31 32 32 32 31 30 30 30 30 29 29 30 31 32 33 34 35 36 38 39 41
22 23 23 23 22 22 21 21 22 23 23 25 26 28 29 30 31 32 32 32 32 31 30 31 32 31 31 30 29 29 29 30 30 29 30 31 32 33 35 36 38 40 41 43
21 21 20 19 18 18 18 18 18 18 19 21 22 25 27 29 29 29 30 31 30 30 29 29 28 28 28 27 27 27 27 28 29 30 31 32 33 34 36 38 40 41 44 46
18 18 17 15 15 16 15 14 14 15 16 18 19 21 24 25 25 26 28 28 28 27 26 25 25 25 24 24 25 25 26 28 29 31 32 33 34 36 38 40 42 45 47 49
16 15 14 13 12 12 11 12 12 13 14 16 18 18 19 20 21 21 23 23 23 23 22 21 20 20 21 23 24 25 27 29 30 31 33 35 37 39 42 44 46 48 51 53
13 13 12 11 10 11 10 10 11 13 14 15 16 17 17 17 18 18 18 19 18 18 18 18 19 20 21 22 24 26 27 29 31 33 35 38 41 43 46 48 50 52 53 54
12 11 9 8 9 10 11 11 10 11 13 14 15 15 15 14 14 14 14 15 15 15 16 17 18 19 21 23 25 27 29 31 34 37 39 42 44 47 49 50 51 52 53 53
10 9 8 8 9 10 11 11 11 11 12 12 11 10 9 9 10 10 10 11 12 13 15 17 18 20 23 25 27 30 32 35 38 40 43 45 47 48 49 50 51 51 50 50
11 10 8 8 8 9 10 10 10 10 9 8 8 7 7 8 8 9 10 11 13 14 16 18 21 23 26 28 31 34 36 38 41 43 44 46 47 48 48 49 49 49 48 48
12 10 9 8 7 7 7 7 7 7 7 6 6 7 8 8 9 9 11 12 14 17 19 22 24 27 29 32 34 36 39 40 42 44 45 46 46 47 47 47 46 46 45 44
12 11 10 9 8 8 7 6 6 6 6 6 7 8 8 9 11 12 14 16 18 20 23 25 28 30 32 35 37 38 40 41 42 43 44 45 45 45 44 43 42 41 40 39
13 12 11 11 10 10 9 8 7 8 8 8 9 10 11 12 14 16 18 20 22 24 26 29 31 33 35 36 38 39 40 40 41 42 42 42 42 41 40 39 38 37 36 35
14 13 12 12 12 12 11 10 10 10 11 11 12 13 14 16 18 19 21 23 26 28 30 31 33 34 36 37 38 38 38 39 39 39 39 38 38 37 36 35 34 33 33 32
14 14 13 13 13 13 13 12 13 13 14 15 16 17 18 19 21 23 25 27 29 30 32 33 34 35 36 36 36 36 36 36 36 36 35 34 34 33 32 31 31 31 30 29
14 14 14 14 14 14 14 14 15 16 17 18 19 20 21 22 24 26 27 29 30 31 32 33 34 34 34 33 33 33 33 33 32 32 31 31 30 30 29 28 28 28 27 26
14 14 14 14 14 14 15 15 17 18 19 20 21 22 23 25 26 28 29 30 31 32 32 33 32 31 31 30 30 30 30 29 28 28 28 27 27 27 26 26 26 25 25 24
14 15 15 15 16 16 17 18 19 20 21 22 24 25 26 27 28 29 30 31 31 31 31 30 29 28 28 27 27 26 25 25 25 25 24 24 24 24 24 24 23 23 23 23
14 15 15 16 17 18 19 20 22 22 23 24 26 27 28 29 29 30 30 30 29 28 27 27 26 25 25 25 24 23 23 23 22 21 21 21 22 23 23 22 22 22 23 23

GEFSNGP_500_meanwind_096.txt.gz
Wind_Speed
29 27 26 24 25 26 25 24 25 25 24 25 27 28 27 26 23 21 22 21 18 17 16 13 12 10 9 8 8 9 9 9 10 11 12 13 14 15 16 18 20 21 21 21
32 30 27 27 25 24 23 24 25 28 28 27 31 32 32 29 27 26 25 23 21 21 19 16 15 13 11 10 10 10 11 11 11 12 13 14 15 16 17 18 18 19 20 20
33 30 31 31 28 27 28 28 29 30 32 33 34 35 35 32 30 29 29 26 26 24 21 19 17 16 14 13 13 13 13 13 13 14 15 16 17 17 17 17 17 18 19 20
32 33 35 31 30 31 33 33 33 35 36 36 37 37 36 35 36 35 33 31 29 27 25 22 21 20 18 17 16 16 16 16 16 17 18 18 19 19 18 18 18 18 19 20
32 32 32 29 30 32 33 33 35 36 36 36 36 36 36 36 37 37 35 33 31 29 28 25 24 22 21 20 20 19 19 19 19 19 19 20 20 21 21 21 21 22 23 24
32 33 31 30 31 32 32 34 36 36 35 36 36 36 37 36 35 35 35 34 31 31 30 28 27 25 24 23 23 22 22 22 21 21 21 21 22 23 24 25 26 26 27 28
30 31 31 33 33 33 33 35 35 34 34 34 35 36 35 35 35 34 34 34 33 32 32 31 30 29 27 27 26 25 24 24 24 24 24 24 25 25 26 28 29 30 31 32
28 28 30 33 33 33 34 33 32 32 33 33 33 34 34 34 34 34 34 34 34 34 34 33 32 31 30 30 29 27 27 26 27 27 27 27 28 28 30 31 32 33 33 33
28 29 31 33 32 31 31 32 32 33 33 33 33 33 33 33 33 34 34 35 34 34 35 34 34 34 33 31 30 30 30 31 30 29 30 30 30 31 32 33 33 33 33 34
29 30 32 32 31 31 31 31 31 32 32 32 32 32 32 32 32 32 33 33 33 34 34 34 34 34 33 32 32 32 32 33 32 32 32 31 32 32 32 33 33 34 35 36
29 30 31 31 30 31 30 30 30 30 30 30 30 30 30 30 30 30 31 32 32 32 33 33 33 33 33 33 33 34 33 34 33 33 32 31 31 32 32 33 33 34 36 37
28 28 28 28 28 29 29 29 28 28 27 27 27 27 27 27 27 28 29 30 31 32 33 33 33 33 34 33 32 32 33 32 31 29 28 29 30 31 32 33 34 36 37 39
26 25 26 26 26 26 26 25 25 25 25 23 23 23 23 24 25 27 27 27 28 30 31 31 31 32 32 31 31 30 29 28 27 26 26 28 29 30 31 32 34 37 40 42
25 24 24 24 24 23 22 22 21 21 21 20 19 19 20 21 22 24 24 25 25 25 26 26 27 27 27 26 26 26 25 24 24 24 25 27 28 29 31 34 36 39 41 44
22 21 21 20 20 20 19 18 18 18 17 17 16 15 17 18 19 20 20 20 20 21 21 22 22 21 21 21 21 21 21 21 22 24 26 28 30 32 34 37 39 41 43 45
20 19 18 17 17 16 17 17 16 16 15 14 13 12 14 14 15 15 15 13 13 14 14 15 16 16 16 17 17 18 19 21 24 26 28 30 32 35 37 39 41 43 44 46
18 16 15 14 14 13 13 14 13 12 11 10 12 11 11 10 10 10 10 10 10 10 10 11 12 13 14 15 16 19 21 23 25 27 29 32 34 36 38 41 42 44 45 45
14 12 11 11 10 9 9 10 11 10 9 8 8 8 8 7 7 7 7 7 8 9 10 10 11 13 14 16 17 19 21 24 27 29 32 34 36 38 40 41 42 43 43 43
12 11 9 8 8 7 7 7 8 8 8 7 7 6 5 5 4 4 5 6 7 8 8 10 12 14 16 17 19 22 24 27 29 31 33 35 37 38 39 40 40 40 40 40
12 11 9 8 8 7 6 6 6 6 6 5 5 4 4 4 4 4 5 5 7 9 11 12 14 16 18 21 23 25 28 30 31 32 34 35 36 37 37 37 37 37 37 37
13 12 10 9 8 8 7 6 6 6 5 5 5 5 4 4 5 6 7 9 10 12 14 16 17 19 22 24 26 28 30 31 32 33 34 35 35 35 35 34 34 34 34 34
14 13 11 10 9 8 7 7 7 6 6 6 6 6 6 6 7 9 10 12 13 15 17 19 21 23 25 27 28 30 30 31 32 32 33 33 33 32 32 31 32 32 32 32
15 14 13 11 9 8 8 8 8 7 7 7 7 8 9 10 11 12 13 15 16 18 20 23 24 26 27 28 29 30 30 31 31 31 31 30 30 29 29 29 30 30 30 29
14 14 12 11 10 10 10 10 9 9 10 10 10 11 12 13 14 15 17 18 20 22 23 25 26 27 29 29 29 29 29 29 29 29 28 28 28 27 27 27 28 27 27 27
13 12 12 11 10 10 10 11 11 11 11 12 12 13 14 15 17 18 20 21 23 24 26 27 28 28 29 28 28 28 28 27 27 26 26 26 25 25 25 25 25 25 25 25
12 12 12 11 11 12 12 11 12 12 12 13 14 15 17 18 20 21 23 24 25 26 27 27 28 28 27 27 27 27 26 25 24 24 24 23 23 24 23 23 23 23 23 23
11 11 11 11 11 12 12 12 13 14 14 16 17 19 20 21 22 23 24 25 26 26 27 27 27 26 26 25 25 24 23 22 22 22 21 21 21 21 20 20 21 21 21 21

GEFSNGP_500_meanwind_102.txt.gz
Wind_Speed
33 32 32 31 30 29 29 29 29 27 27 26 25 25 24 22 21 19 17 16 16 16 15 14 13 12 10 9 8 7 7 8 8 10 11 13 13 13 13 13 15 16 17 18
37 35 34 34 33 33 34 32 31 31 30 28 27 27 26 25 24 22 21 20 19 20 19 17 14 12 10 10 9 8 8 9 9 10 11 11 12 12 13 14 15 16 17 18
40 37 35 35 35 37 37 36 34 33 31 31 30 28 27 27 27 26 25 24 23 22 20 17 16 14 12 11 11 11 10 11 11 11 11 12 13 14 14 15 15 16 17 18
40 38 38 35 37 38 38 38 37 34 33 32 31 30 30 30 29 29 29 28 27 24 22 19 18 17 16 15 15 14 13 12 12 13 13 14 15 16 17 16 17 18 18 18
40 38 36 35 37 39 40 40 39 37 35 33 32 33 32 32 32 31 31 30 28 27 25 22 20 19 18 18 18 17 16 16 16 16 16 16 17 18 18 19 20 20 21 21
41 39 37 34 34 36 38 40 38 36 36 35 35 35 34 34 33 32 31 30 29 27 24 23 22 21 21 20 20 20 19 18 18 17 17 18 18 19 20 21 22 22 23 24
38 38 36 33 31 33 36 36 36 36 36 36 36 36 35 34 34 33 32 31 30 28 25 25 24 24 23 24 23 22 22 21 21 20 19 20 20 21 22 23 24 25 26 27
37 36 36 32 32 33 34 34 35 35 36 36 36 35 35 34 33 32 31 30 29 28 27 26 25 25 25 25 24 24 23 23 23 22 22 22 22 23 24 25 27 29 29 30
35 35 34 32 32 32 32 32 32 32 33 34 33 33 33 32 31 30 30 29 29 28 27 27 27 26 26 25 25 25 25 25 25 24 24 24 25 26 25 26 28 29 30 31
34 34 33 32 32 32 32 31 31 31 31 31 30 30 30 30 30 29 29 29 29 29 28 27 27 27 27 26 26 26 26 26 25 26 26 25 26 26 26 27 29 30 29 30
33 33 32 30 30 30 30 30 30 30 30 31 29 28 28 28 28 28 27 27 27 27 27 26 26 26 27 27 26 26 26 26 26 27 26 26 26 27 27 27 27 28 28 29
31 29 29 28 28 28 29 29 29 28 27 27 27 26 26 26 26 26 26 25 25 25 25 25 25 26 26 26 25 25 26 27 27 26 26 27 27 26 27 28 28 29 29 30
27 26 27 27 27 26 26 26 26 26 26 25 25 24 24 24 24 24 23 22 22 23 23 23 24 24 24 23 23 23 24 25 24 23 24 25 26 26 27 27 28 29 31 32
25 24 24 25 24 23 24 24 23 23 22 22 22 21 21 21 21 21 20 19 19 20 21 20 20 20 20 20 20 20 20 21 22 22 21 22 23 24 25 27 28 30 32 33
23 22 21 21 21 21 21 20 20 20 19 18 18 17 17 17 17 16 16 16 17 18 19 18 17 17 17 17 17 17 18 19 20 20 20 21 21 23 25 27 29 32 33 34
22 21 20 20 20 20 19 18 18 17 16 15 14 14 14 14 14 14 14 14 15 16 16 16 16 16 16 15 15 16 17 17 18 18 19 21 23 25 27 29 30 32 33 35
18 18 18 17 17 16 16 16 15 14 13 13 12 11 11 12 12 12 12 12 13 13 14 13 12 12 13 13 13 14 15 16 17 19 20 21 24 26 28 29 31 32 33 35
17 16 15 14 13 13 12 12 12 11 10 10 10 10 10 10 10 11 11 10 10 10 10 10 10 9 9 9 11 13 15 16 17 19 21 23 24 26 28 30 31 32 34 35
15 14 13 12 11 11 10 10 9 9 9 9 8 8 9 9 9 9 9 9 9 9 9 8 8 8 9 10 11 13 14 16 18 20 22 24 26 28 29 30 31 32 33 33
13 12 11 10 10 9 8 8 8 7 8 8 9 9 9 9 9 9 8 8 7 7 7 7 7 8 9 10 12 14 16 18 20 22 24 26 27 28 29 30 31 31 31 31
11 11 10 10 10 9 9 9 8 8 8 9 8 8 8 8 8 8 8 7 7 7 7 8 9 10 11 13 15 17 19 21 23 24 26 26 27 28 29 30 30 29 29 29
11 11 11 10 10 10 10 10 9 8 8 9 9 9 8 8 7 7 7 7 8 8 9 10 11 12 14 16 19 20 22 23 25 25 26 27 27 28 28 28 27 27 26 26
12 12 12 11 11 11 12 11 10 9 9 9 8 8 8 7 7 7 8 9 9 10 11 12 14 15 17 19 21 23 24 24 25 26 26 26 26 26 26 25 24 24 24 24
12 12 11 10 10 11 12 11 11 10 9 9 9 9 9 9 9 10 10 11 12 13 15 16 17 19 20 21 23 24 24 24 25 25 25 25 25 24 23 23 22 22 22 21
12 11 11 10 10 10 10 10 10 11 11 11 11 11 11 11 12 12 13 14 15 16 17 18 20 21 22 23 23 24 24 24 24 24 23 23 22 22 21 21 21 20 20 19
11 11 11 10 11 11 10 10 11 12 12 12 12 12 12 13 14 15 16 16 17 19 20 21 22 22 23 23 24 24 24 24 23 23 22 21 21 21 20 20 20 19 18 18
11 10 10 10 10 10 10 10 10 11 12 13 14 14 15 16 16 17 18 19 20 21 22 23 24 24 24 25 24 24 24 23 22 21 21 20 20 20 20 19 19 18 18 18